KC3ROS Weather Reports


Display with metric or nautical units.
time (UTC)temp
F
wind
direction
speed
MPH
gust
MPH
rain 1hr
in
rain 24hr
in
rain mn
in
humidity
%
barometer
mb
20260903003316 83 257 1.0 3.0 0.00 0.00 0.00 78 1015.7
20260903002815 83 257 2.0 3.0 0.00 0.00 0.00 77 1015.5
20260903002315 83 252 0.0 2.0 0.00 0.00 0.00 76 1015.6
20260903001810 83 240 2.0 3.0 0.00 0.00 0.00 75 1015.6
20260903001305 84 246 2.0 3.0 0.00 0.00 0.00 75 1015.7
20260903000800 84 247 1.0 3.0 0.00 0.00 0.00 74 1015.6
20260903000256 84 240 1.0 3.0 0.00 0.00 0.00 74 1015.8
20260902235753 84 247 0.0 2.0 0.00 0.00 0.00 73 1015.6
20260902235249 84 250 2.0 3.0 0.00 0.00 0.00 73 1015.6
20260902234748 84 241 3.0 4.0 0.00 0.00 0.00 73 1015.7
20260902234247 85 256 2.0 4.0 0.00 0.00 0.00 72 1015.6
20260902233742 85 238 2.0 4.0 0.00 0.00 0.00 72 1015.7
20260902233236 85 253 1.0 4.0 0.00 0.00 0.00 72 1015.8
20260902232734 85 262 2.0 4.0 0.00 0.00 0.00 72 1015.7
20260902232229 86 248 0.0 4.0 0.00 0.00 0.00 71 1015.7
20260902231729 86 233 2.0 6.0 0.00 0.00 0.00 71 1015.6
20260902231224 86 254 2.0 4.0 0.00 0.00 0.00 71 1015.6
20260902230719 86 267 3.0 5.0 0.00 0.00 0.00 71 1015.5
20260902230218 87 255 2.0 5.0 0.00 0.00 0.00 69 1015.4
20260902225712 87 236 3.0 6.0 0.00 0.00 0.00 69 1015.6
20260902225207 87 250 2.0 4.0 0.00 0.00 0.00 69 1015.5
20260902224705 87 269 0.0 3.0 0.00 0.00 0.00 68 1015.9
20260902224200 87 241 2.0 3.0 0.00 0.00 0.00 67 1015.8
20260902223657 87 289 3.0 5.0 0.00 0.00 0.00 67 1015.7
20260902223156 88 285 1.0 5.0 0.00 0.00 0.00 66 1015.5
20260902222650 88 260 2.0 6.0 0.00 0.00 0.00 67 1015.6
20260902222148 88 238 3.0 9.0 0.00 0.00 0.00 66 1015.7
20260902221642 89 252 3.0 7.0 0.00 0.00 0.00 65 1015.6
20260902221132 89 265 4.0 9.0 0.00 0.00 0.00 64 1015.6
20260902220627 90 218 3.0 10.0 0.00 0.00 0.00 64 1015.6
20260902220122 90 251 1.0 7.0 0.00 0.00 0.00 64 1015.8
20260902215618 91 237 3.0 6.0 0.00 0.00 0.00 62 1015.8
20260902215113 90 247 1.0 6.0 0.00 0.00 0.00 62 1015.8
20260902214608 90 244 2.0 6.0 0.00 0.00 0.00 63 1016.0
20260902214107 90 256 2.0 6.0 0.00 0.00 0.00 62 1016.0
20260902213603 90 253 2.0 7.0 0.00 0.00 0.00 64 1015.8
20260902213102 90 265 3.0 7.0 0.00 0.00 0.00 62 1015.7
20260902212558 90 244 4.0 9.0 0.00 0.00 0.00 61 1015.9
20260902212054 90 123 2.0 7.0 0.00 0.00 0.00 62 1015.8
20260902211550 91 267 4.0 7.0 0.00 0.00 0.00 61 1015.8
20260902211049 91 260 4.0 8.0 0.00 0.00 0.00 61 1015.9
20260902210544 92 228 5.0 11.0 0.00 0.00 0.00 60 1015.8
20260902210043 91 230 1.0 5.0 0.00 0.00 0.00 61 1015.9
20260902205542 91 258 2.0 7.0 0.00 0.00 0.00 63 1015.8
20260902205038 91 224 3.0 7.0 0.00 0.00 0.00 61 1015.9
20260902204533 91 345 0.0 5.0 0.00 0.00 0.00 62 1016.0
20260902204028 92 243 3.0 5.0 0.00 0.00 0.00 61 1016.3
20260902203523 92 266 1.0 7.0 0.00 0.00 0.00 60 1016.1
20260902203022 91 285 1.0 9.0 0.00 0.00 0.00 62 1016.0
20260902202518 92 265 2.0 8.0 0.00 0.00 0.00 63 1016.3
20260902202014 92 257 6.0 7.0 0.00 0.00 0.00 62 1016.3
20260902201509 91 259 2.0 5.0 0.00 0.00 0.00 62 1016.4
20260902201004 93 282 0.0 4.0 0.00 0.00 0.00 61 1016.2
20260902200459 92 263 3.0 7.0 0.00 0.00 0.00 60 1016.3
20260902195954 91 252 1.0 7.0 0.00 0.00 0.00 60 1016.4
20260902195450 91 235 3.0 11.0 0.00 0.00 0.00 61 1016.3
20260902194944 92 258 4.0 7.0 0.00 0.00 0.00 60 1016.5
20260902194443 91 267 2.0 6.0 0.00 0.00 0.00 63 1016.3
20260902193938 91 274 3.0 8.0 0.00 0.00 0.00 61 1016.4
20260902193434 90 286 3.0 9.0 0.00 0.00 0.00 63 1016.4
20260902192932 91 255 3.0 7.0 0.00 0.00 0.00 64 1016.6
20260902192432 91 230 5.0 9.0 0.00 0.00 0.00 62 1016.7
20260902191931 91 291 2.0 5.0 0.00 0.00 0.00 65 1016.8
20260902191426 90 253 4.0 9.0 0.00 0.00 0.00 65 1016.7
20260902190922 91 240 2.0 7.0 0.00 0.00 0.00 66 1016.7
20260902190417 90 284 2.0 6.0 0.00 0.00 0.00 67 1016.8
20260902185912 90 268 2.0 5.0 0.00 0.00 0.00 67 1017.1
20260902185409 90 241 4.0 5.0 0.00 0.00 0.00 67 1017.1
20260902184903 90 237 2.0 8.0 0.00 0.00 0.00 67 1017.1
20260902184358 89 242 0.0 7.0 0.00 0.00 0.00 67 1017.2
20260902183854 89 89 0.0 6.0 0.00 0.00 0.00 68 1017.3
20260902183350 88 321 1.0 6.0 0.00 0.00 0.00 69 1017.5
20260902182845 90 266 4.0 9.0 0.00 0.00 0.00 67 1017.3
20260902182341 90 240 2.0 7.0 0.00 0.00 0.00 65 1017.2
20260902181832 90 246 1.0 9.0 0.00 0.00 0.00 65 1017.6
20260902181327 90 269 0.0 6.0 0.00 0.00 0.00 67 1017.5
20260902180821 90 55 2.0 6.0 0.00 0.00 0.00 67 1017.4
20260902180317 89 280 2.0 7.0 0.00 0.00 0.00 66 1017.7
20260902175812 88 245 4.0 8.0 0.00 0.00 0.00 70 1017.7
20260902175308 89 250 4.0 6.0 0.00 0.00 0.00 71 1017.7
20260902174802 88 262 3.0 5.0 0.00 0.00 0.00 72 1017.5
20260902174259 89 255 3.0 7.0 0.00 0.00 0.00 73 1017.6
20260902173754 88 255 0.0 4.0 0.00 0.00 0.00 74 1017.7
20260902173249 87 296 3.0 5.0 0.00 0.00 0.00 74 1017.8
20260902172743 88 243 3.0 4.0 0.00 0.00 0.00 74 1017.9
20260902172238 89 280 2.0 5.0 0.00 0.00 0.00 72 1018.0
20260902171733 90 242 4.0 7.0 0.00 0.00 0.00 70 1018.0
20260902171228 89 281 3.0 6.0 0.00 0.00 0.00 73 1017.8
20260902170724 88 204 0.0 8.0 0.00 0.00 0.00 73 1017.9
20260902170219 87 313 2.0 3.0 0.00 0.00 0.00 75 1017.9
20260902165714 88 288 2.0 4.0 0.00 0.00 0.00 75 1017.9
20260902165209 88 242 6.0 7.0 0.00 0.00 0.00 74 1018.0
20260902164709 87 221 3.0 7.0 0.00 0.00 0.00 76 1017.8
20260902164203 87 269 0.0 3.0 0.00 0.00 0.00 76 1018.0
20260902163657 88 124 0.0 3.0 0.00 0.00 0.00 76 1017.9
20260902163152 87 268 2.0 3.0 0.00 0.00 0.00 77 1018.0
20260902162650 87 253 4.0 5.0 0.00 0.00 0.00 77 1018.1
20260902162144 86 233 2.0 6.0 0.00 0.00 0.00 78 1018.1
20260902161639 87 230 4.0 5.0 0.00 0.00 0.00 79 1018.2
20260902161130 87 294 1.0 4.0 0.00 0.00 0.00 79 1018.3
20260902160626 86 275 2.0 5.0 0.00 0.00 0.00 80 1018.3
20260902160121 85 253 1.0 3.0 0.00 0.00 0.00 80 1018.2
20260902155619 85 253 1.0 5.0 0.00 0.00 0.00 80 1018.4
20260902155118 85 228 2.0 5.0 0.00 0.00 0.00 80 1018.4
20260902154613 85 281 2.0 4.0 0.00 0.00 0.00 80 1018.4
20260902154108 85 280 3.0 5.0 0.00 0.00 0.00 80 1018.2
20260902153607 85 233 4.0 5.0 0.00 0.00 0.00 80 1018.3
20260902153103 84 245 1.0 4.0 0.00 0.00 0.00 81 1018.3
20260902152559 84 227 3.0 3.0 0.00 0.00 0.00 82 1018.5
20260902152054 84 278 5.0 6.0 0.00 0.00 0.00 83 1018.5
20260902151550 83 234 4.0 7.0 0.00 0.00 0.00 83 1018.3
20260902151049 83 244 5.0 6.0 0.00 0.00 0.00 82 1018.2
20260902150544 83 271 3.0 5.0 0.00 0.00 0.00 83 1018.5
20260902150039 82 209 0.0 3.0 0.00 0.00 0.00 84 1018.3
20260902145529 82 253 2.0 4.0 0.00 0.00 0.00 84 1018.4
20260902145029 82 13 0.0 2.0 0.00 0.00 0.00 85 1018.5
20260902144526 82 314 3.0 7.0 0.00 0.00 0.00 85 1018.4
20260902144026 81 216 0.0 5.0 0.00 0.00 0.00 86 1018.5
20260902143520 81 77 1.0 8.0 0.00 0.00 0.00 86 1018.5
20260902143016 80 259 1.0 5.0 0.00 0.00 0.00 87 1018.3
20260902142512 80 238 3.0 5.0 0.00 0.00 0.00 86 1018.1
20260902142007 80 263 2.0 6.0 0.00 0.00 0.00 86 1018.3
20260902141501 80 256 4.0 6.0 0.00 0.00 0.00 87 1018.5
20260902140956 80 239 3.0 4.0 0.00 0.00 0.00 88 1018.5
20260902140451 79 247 3.0 5.0 0.00 0.00 0.00 88 1018.4
20260902135950 78 242 1.0 6.0 0.00 0.00 0.00 88 1018.4
20260902135446 77 263 2.0 7.0 0.00 0.00 0.00 89 1018.3
20260902134946 78 231 4.0 7.0 0.00 0.00 0.00 89 1018.2
20260902134442 77 277 3.0 9.0 0.00 0.00 0.00 89 1018.1
20260902133942 77 272 4.0 7.0 0.00 0.00 0.00 90 1018.2
20260902133437 78 255 3.0 7.0 0.00 0.00 0.00 89 1018.5
20260902132931 78 228 1.0 4.0 0.00 0.00 0.00 90 1018.3
20260902132427 78 249 2.0 5.0 0.00 0.00 0.00 89 1018.2
20260902131921 78 225 1.0 3.0 0.00 0.00 0.00 89 1018.2
20260902131419 77 242 3.0 5.0 0.00 0.00 0.00 91 1018.3
20260902130918 77 272 4.0 7.0 0.00 0.00 0.00 90 1018.3
20260902130414 76 277 0.0 3.0 0.00 0.00 0.00 92 1018.4
20260902125908 76 242 0.0 3.0 0.00 0.00 0.00 93 1018.1
20260902125405 75 244 4.0 5.0 0.00 0.00 0.00 94 1018.0
20260902124901 75 253 2.0 3.0 0.00 0.00 0.00 95 1018.2
20260902124356 74 257 3.0 4.0 0.00 0.00 0.00 96 1018.0
20260902123851 74 239 1.0 3.0 0.00 0.00 0.00 96 1018.2
20260902123348 74 269 0.0 2.0 0.00 0.00 0.00 97 1018.4
20260902122846 74 244 2.0 2.0 0.00 0.00 0.00 98 1018.4
20260902122342 73 220 0.0 3.0 0.00 0.00 0.00 98 1018.2
20260902121841 73 209 0.0 3.0 0.00 0.00 0.00 98 1018.2
20260902121336 73 280 0.0 3.0 0.00 0.00 0.00 98 1018.1
20260902120832 73 239 2.0 3.0 0.00 0.00 0.00 98 1018.0
20260902120328 73 253 2.0 4.0 0.00 0.00 0.00 99 1018.1
20260902115822 73 240 0.0 4.0 0.00 0.00 0.00 99 1018.1
20260902115319 73 223 2.0 3.0 0.00 0.00 0.00 99 1018.0
20260902114815 73 279 1.0 3.0 0.00 0.00 0.00 99 1017.8
20260902114311 73 232 0.0 3.0 0.00 0.00 0.00 99 1017.6
20260902113805 73 250 2.0 3.0 0.00 0.00 0.00 99 1017.4
20260902113300 73 214 1.0 4.0 0.00 0.00 0.00 99 1017.4
20260902112800 72 265 2.0 3.0 0.00 0.00 0.00 99 1017.8
20260902112257 72 264 2.0 5.0 0.00 0.00 0.00 99 1017.5
20260902111752 72 248 1.0 3.0 0.00 0.00 0.00 99 1017.6
20260902111249 72 247 3.0 4.0 0.00 0.00 0.00 99 1017.6
20260902110744 72 244 2.0 4.0 0.00 0.00 0.00 99 1017.7
20260902110239 72 269 0.0 4.0 0.00 0.00 0.00 99 1017.7
20260902105734 72 230 1.0 3.0 0.00 0.00 0.00 99 1017.7
20260902105229 72 269 0.0 3.0 0.00 0.00 0.00 99 1017.6
20260902104724 72 212 0.0 3.0 0.00 0.00 0.00 99 1017.2
20260902104221 72 223 1.0 4.0 0.00 0.00 0.00 99 1017.2
20260902103720 72 0 0.0 2.0 0.00 0.00 0.00 99 1017.2
20260902103220 72 275 1.0 4.0 0.00 0.00 0.00 99 1017.3
20260902102715 72 205 0.0 4.0 0.00 0.00 0.00 99 1017.4
20260902102213 72 236 1.0 4.0 0.00 0.00 0.00 99 1017.3
20260902101708 72 242 2.0 4.0 0.00 0.00 0.00 99 1017.4
20260902101203 72 250 2.0 5.0 0.00 0.00 0.00 99 1017.3
20260902100701 72 236 1.0 4.0 0.00 0.00 0.00 99 1017.5
20260902100156 72 243 2.0 5.0 0.00 0.00 0.00 99 1017.5
20260902095655 72 243 2.0 4.0 0.00 0.00 0.00 99 1017.4
20260902095149 72 210 2.0 5.0 0.00 0.00 0.00 99 1017.5
20260902094645 72 258 3.0 4.0 0.00 0.00 0.00 99 1017.5
20260902094141 72 200 2.0 5.0 0.00 0.00 0.00 99 1017.4
20260902093640 72 206 0.0 4.0 0.00 0.00 0.00 99 1017.5
20260902093135 72 254 1.0 3.0 0.00 0.00 0.00 99 1017.6
20260902092630 72 205 1.0 3.0 0.00 0.00 0.00 99 1017.4
20260902092125 72 44 0.0 3.0 0.00 0.00 0.00 99 1017.6
20260902091620 72 212 1.0 4.0 0.00 0.00 0.00 99 1017.6
20260902091117 72 284 0.0 3.0 0.00 0.00 0.00 99 1017.7
20260902090613 72 221 1.0 3.0 0.00 0.00 0.00 99 1017.7
20260902090111 72 181 1.0 4.0 0.00 0.00 0.00 99 1017.5
20260902085611 72 227 0.0 2.0 0.00 0.00 0.00 99 1017.6
20260902085107 72 269 0.0 1.0 0.00 0.00 0.00 99 1017.6
20260902084603 72 219 0.0 2.0 0.00 0.00 0.00 99 1017.5
20260902084058 72 269 0.0 2.0 0.00 0.00 0.00 99 1017.5
20260902083553 72 191 0.0 2.0 0.00 0.00 0.00 99 1017.6
20260902083048 72 282 0.0 2.0 0.00 0.00 0.00 99 1017.6
20260902082544 72 256 1.0 1.0 0.00 0.00 0.00 99 1017.6
20260902082040 72 242 0.0 2.0 0.00 0.00 0.00 99 1017.5
20260902081536 72 229 0.0 2.0 0.00 0.00 0.00 99 1017.6
20260902081036 72 263 2.0 2.0 0.00 0.00 0.00 99 1017.5
20260902080532 72 222 1.0 2.0 0.00 0.00 0.00 99 1017.6
20260902080028 72 205 0.0 3.0 0.00 0.00 0.00 99 1017.5
20260902075527 72 234 1.0 5.0 0.00 0.00 0.00 99 1017.6
20260902075024 72 252 1.0 3.0 0.00 0.00 0.00 98 1017.9
20260902074518 72 229 0.0 3.0 0.00 0.00 0.00 98 1017.9
20260902074013 73 262 2.0 3.0 0.00 0.00 0.00 98 1017.8
20260902073509 73 251 2.0 3.0 0.00 0.00 0.00 98 1017.8
20260902073006 73 223 0.0 4.0 0.00 0.00 0.00 98 1017.8
20260902072500 73 230 2.0 3.0 0.00 0.00 0.00 97 1017.8
20260902071951 73 239 3.0 3.0 0.00 0.00 0.00 97 1017.9
20260902071450 73 239 2.0 4.0 0.00 0.00 0.00 97 1017.7
20260902070947 73 263 2.0 3.0 0.00 0.00 0.00 97 1018.0
20260902070443 73 241 2.0 3.0 0.00 0.00 0.00 97 1017.8
20260902065941 73 265 1.0 2.0 0.00 0.00 0.00 97 1017.7
20260902065436 73 237 0.0 1.0 0.00 0.00 0.00 97 1017.9
20260902064931 73 244 1.0 2.0 0.00 0.00 0.00 96 1017.6
20260902064427 73 228 1.0 2.0 0.00 0.00 0.00 96 1017.8
20260902063923 73 245 1.0 2.0 0.00 0.00 0.00 96 1017.9
20260902063422 73 266 0.0 1.0 0.00 0.00 0.00 96 1017.9
20260902062918 73 242 0.0 2.0 0.00 0.00 0.00 96 1017.8
20260902062417 73 247 0.0 1.0 0.00 0.00 0.00 96 1017.9
20260902061916 73 257 0.0 2.0 0.00 0.00 0.00 96 1017.7
20260902061412 73 253 0.0 2.0 0.00 0.00 0.00 96 1017.8
20260902060908 73 222 0.0 2.0 0.00 0.00 0.00 96 1017.9
20260902060404 73 250 0.0 2.0 0.00 0.00 0.00 95 1017.7
20260902055900 73 246 0.0 1.0 0.00 0.00 0.00 95 1017.8
20260902055356 74 233 0.0 2.0 0.00 0.00 0.00 95 1017.8
20260902054851 74 269 0.0 0.0 0.00 0.00 0.00 94 1017.6
20260902054346 74 278 0.0 1.0 0.00 0.00 0.00 94 1017.5
20260902053841 74 242 0.0 2.0 0.00 0.00 0.00 94 1017.7
20260902053336 74 238 2.0 4.0 0.00 0.00 0.00 94 1017.5
20260902052835 74 246 1.0 3.0 0.00 0.00 0.00 93 1017.5
20260902052331 74 240 2.0 4.0 0.00 0.00 0.00 93 1017.6
20260902051825 74 237 2.0 3.0 0.00 0.00 0.00 93 1017.4
20260902051320 74 251 1.0 4.0 0.00 0.00 0.00 93 1017.5
20260902050814 75 253 1.0 4.0 0.00 0.00 0.00 92 1017.5
20260902050314 75 218 0.0 3.0 0.00 0.00 0.00 92 1017.4
20260902045809 75 234 0.0 2.0 0.00 0.00 0.00 92 1017.5
20260902045306 75 250 0.0 2.0 0.00 0.00 0.00 92 1017.3
20260902044801 75 233 0.0 2.0 0.00 0.00 0.00 92 1017.6
20260902044256 75 242 0.0 1.0 0.00 0.00 0.00 92 1017.5
20260902043750 75 246 1.0 2.0 0.00 0.00 0.00 92 1017.5
20260902043246 75 269 0.0 1.0 0.00 0.00 0.00 91 1017.4
20260902042745 75 250 1.0 1.0 0.00 0.00 0.00 91 1017.4
20260902042240 75 243 1.0 2.0 0.00 0.00 0.00 91 1017.5
20260902041736 75 226 1.0 2.0 0.00 0.00 0.00 91 1017.5
20260902041236 75 240 0.0 2.0 0.00 0.00 0.00 91 1017.4
20260902040735 75 239 1.0 1.0 0.00 0.00 0.00 91 1017.4
20260902040231 75 256 0.0 2.0 0.00 0.00 0.00 91 1017.2
20260902035729 75 237 0.0 1.0 0.00 0.00 0.00 91 1017.1
20260902035225 75 235 0.0 2.0 0.00 0.00 0.00 91 1017.3
20260902034723 75 299 0.0 2.0 0.00 0.00 0.00 91 1017.3
20260902034218 75 258 0.0 2.0 0.00 0.00 0.00 91 1017.2
20260902033716 75 243 0.0 2.0 0.00 0.00 0.00 90 1017.2
20260902033212 75 229 1.0 4.0 0.00 0.00 0.00 90 1016.8
20260902032710 75 252 0.0 2.0 0.00 0.00 0.00 90 1017.3
20260902032206 75 230 0.0 3.0 0.00 0.00 0.00 90 1017.1
20260902031705 75 249 1.0 3.0 0.00 0.00 0.00 89 1017.2
20260902031201 75 214 3.0 4.0 0.00 0.00 0.00 89 1017.3
20260902030657 75 245 3.0 3.0 0.00 0.00 0.00 89 1016.8
20260902030156 75 243 1.0 5.0 0.00 0.00 0.00 89 1017.3
20260902025650 76 239 2.0 3.0 0.00 0.00 0.00 88 1017.2
20260902025145 76 238 1.0 4.0 0.00 0.00 0.00 88 1017.3
20260902024641 76 241 2.0 3.0 0.00 0.00 0.00 87 1017.2
20260902024136 76 230 2.0 5.0 0.00 0.00 0.00 87 1017.2
20260902023631 76 269 3.0 5.0 0.00 0.00 0.00 87 1017.4
20260902023126 76 208 3.0 4.0 0.00 0.00 0.00 87 1017.4
20260902022620 76 253 1.0 5.0 0.00 0.00 0.00 87 1017.5
20260902022116 76 248 0.0 5.0 0.00 0.00 0.00 87 1017.3
20260902021611 76 269 0.0 4.0 0.00 0.00 0.00 87 1017.2
20260902021106 76 226 3.0 5.0 0.00 0.00 0.00 87 1017.2
20260902020602 77 258 2.0 6.0 0.00 0.00 0.00 87 1017.2
20260902020058 77 239 0.0 3.0 0.00 0.00 0.00 86 1017.2
20260902015553 77 236 1.0 3.0 0.00 0.00 0.00 86 1017.0
20260902015049 77 235 2.0 4.0 0.00 0.00 0.00 85 1017.1
20260902014545 77 252 2.0 4.0 0.00 0.00 0.00 85 1017.3
20260902014040 77 224 3.0 5.0 0.00 0.00 0.00 85 1017.2
20260902013539 78 257 3.0 5.0 0.00 0.00 0.00 85 1017.2
20260902013035 77 236 3.0 5.0 0.00 0.00 0.00 85 1017.1
20260902012530 78 249 2.0 5.0 0.00 0.00 0.00 85 1017.0
20260902012026 78 249 2.0 3.0 0.00 0.00 0.00 85 1017.0
20260902011521 78 251 1.0 3.0 0.00 0.00 0.00 84 1017.0
20260902011021 78 241 2.0 3.0 0.00 0.00 0.00 84 1016.8
20260902010520 78 229 2.0 5.0 0.00 0.00 0.00 84 1016.6
20260902010016 78 246 1.0 4.0 0.00 0.00 0.00 83 1016.8
20260902005514 78 241 1.0 2.0 0.00 0.00 0.00 83 1016.4
20260902005010 79 240 2.0 5.0 0.00 0.00 0.00 83 1016.6
20260902004509 79 258 2.0 6.0 0.00 0.00 0.00 84 1016.5
20260902004005 79 260 2.0 3.0 0.00 0.00 0.00 84 1016.4